Location: Hillingdon
(51.5167°N, 0.4500°W)
Time: 05:31:03
(UTC+00:00)

Daily predictions for brighter satellites

Satellite Brightness Start Highest point End
(mag) Time Altitude Azimuth Time Altitude Azimuth Time Altitude Azimuth
Cosmos 2333 Rocket 4.2 00:04:54 17° E 00:04:54 17° E 00:07:43 10° ENE
ALOS 2 4.2 00:06:52 28° WNW 00:06:52 28° WNW 00:09:29 10° NNW
USA 215 3.9 00:01:07 10° ENE 00:06:02 39° ESE 00:06:02 39° ESE
Cosmos 1447 Rocket 4.3 00:08:01 84° SW 00:08:11 86° W 00:14:24 10° N
Cosmos 2360 Rocket 3.9 00:09:55 21° E 00:09:55 21° E 00:13:19 10° NE
Cosmos 2263 Rocket 3.3 00:06:44 10° NW 00:10:39 33° W 00:10:39 33° W
Lacrosse 4 Rocket 3.4 00:15:02 21° NE 00:15:02 21° NE 00:16:33 10° NE
Cosmos 1814 Rocket 4.3 00:14:29 60° NE 00:14:29 60° NE 00:18:46 10° NNE
Cosmos 2322 Rocket 3.4 00:19:32 30° E 00:19:32 30° E 00:23:40 10° NE
Cosmos 1891 Rocket 4.3 00:15:43 10° NNW 00:21:52 80° W 00:21:58 80° WSW
ATLAS 3B R/B 4.4 00:17:11 10° WNW 00:23:56 35° NNW 00:30:58 10° NE
NOSS 3-2 (C) 3.9 00:17:13 10° NW 00:24:29 85° SW 00:26:40 54° SE
Cosmos 2034 Rocket 4.2 00:18:27 10° N 00:24:35 59° ENE 00:25:21 55° ESE
Cosmos 1513 Rocket 4.3 00:19:15 10° NNW 00:25:20 82° W 00:25:24 81° WSW
Cosmos 2219 Rocket 4.2 00:27:22 15° E 00:27:22 15° E 00:30:27 10° ENE
Cosmos 2058 Rocket 4.0 00:32:03 45° N 00:32:03 45° N 00:35:07 10° N
Cosmos 1844 3.7 00:27:49 10° NNW 00:33:37 78° ENE 00:33:46 77° ENE
SL-16 R/B 2.5 00:35:17 58° E 00:35:17 58° E 00:40:23 10° NE
H-2A R/B 3.4 00:38:43 10° N 00:41:37 34° NW 00:41:37 34° NW
USA 267 3.1 00:42:48 65° SSE 00:43:45 77° SSW 00:50:20 10° WNW
GEOS 3 Rocket 3.6 00:49:53 81° ENE 00:50:01 82° NE 00:55:21 10° NW
ADEOS II 4.4 00:49:03 10° ENE 00:51:19 13° E 00:53:12 11° ESE
Timation 2 Rocket 4.0 00:45:06 10° NNW 00:51:51 85° ENE 00:53:00 63° SE
Cosmos 2278 3.6 00:54:34 80° WNW 00:54:37 80° WNW 01:00:20 10° NNE
Nimbus 7 Rocket 4.3 00:48:51 10° NNE 00:54:45 75° ESE 00:55:02 74° SE
ATLAS 5 CENTAUR R/B 4.3 00:53:01 10° NW 00:55:51 18° N 00:59:02 10° NE
Cosmos 1125 Rocket 4.0 00:51:59 10° NNW 00:56:06 51° WNW 00:56:06 51° WNW
Meteor 2-21 Rocket 4.3 00:57:25 73° SSE 00:57:57 79° E 01:04:11 10° NNE
SL-16 R/B 4.4 00:53:10 10° ESE 00:58:11 27° NE 01:03:14 10° N
Helios 1A Rocket 4.4 01:00:30 31° NNW 01:00:30 31° NNW 01:02:41 10° NNW
Cosmos 1844 Rocket 2.9 00:53:15 10° NW 00:58:03 59° WNW 00:58:03 59° WNW
Cosmos 1980 Rocket 3.4 00:57:35 29° WNW 00:59:09 34° NW 01:04:18 10° NNE
Meteor 2-21 4.3 00:58:50 74° SW 00:59:18 79° WNW 01:05:33 10° N
CZ-2D R/B 3.8 00:58:55 10° NE 01:03:08 23° E 01:04:20 21° ESE
Meteor 1-5 Rocket 4.5 00:57:37 10° N 01:03:20 66° ENE 01:04:15 58° ESE
Cosmos 2208 Rocket 4.0 01:09:23 76° E 01:09:23 76° E 01:14:45 10° NNE
MOZ.5/SAFIR/RUBIN 5/SL-8 3.9 01:12:10 71° NE 01:12:10 71° NE 01:16:38 10° NNW
Cosmos-2242 3.7 01:14:26 49° N 01:14:26 49° N 01:17:38 10° N
Cosmos 2237 4.1 01:13:16 71° W 01:13:38 74° WNW 01:19:23 10° NNE
Cosmos 1816 Rocket 4.3 01:16:05 69° SW 01:16:43 77° W 01:22:53 10° N
Cosmos 2150 Rocket 4.3 01:18:46 10° NNW 01:23:01 54° WNW 01:23:01 54° WNW
USA 238 DEB 3.8 01:16:41 10° NW 01:23:54 68° SW 01:26:01 49° S
USA 238 3.8 01:16:46 10° NW 01:24:01 69° SW 01:26:14 48° S
COSMOS 2428 4.4 01:22:41 19° ESE 01:24:08 21° E 01:28:18 10° NE
Cosmos 2298 Rocket 4.3 01:19:21 10° NNW 01:23:54 56° WNW 01:23:54 56° WNW
Cosmos 489 Rocket 4.5 01:25:32 10° NNW 01:31:54 81° ENE 01:34:06 43° SE
CZ-2C R/B 3.3 01:31:22 30° SE 01:33:50 51° ENE 01:39:02 10° N
Meteor 2-2 Rocket 4.2 01:33:30 67° SW 01:34:11 76° WNW 01:40:08 10° N
Cosmos 1867 4.2 01:29:29 10° NW 01:34:54 56° NE 01:40:17 10° ESE
Cosmos 836 Rocket 4.3 01:36:30 79° WSW 01:36:48 84° WNW 01:42:08 10° NNE
NPP 4.1 01:33:11 10° NNE 01:38:27 52° E 01:39:31 45° SE
Tsikada Rocket 3.9 01:37:57 62° SSW 01:39:03 81° W 01:45:16 10° N
Cosmos 2221 2.8 01:40:19 60° ENE 01:40:19 60° ENE 01:44:15 10° NNE
Cosmos 2279 Rocket 4.1 01:34:29 10° N 01:40:46 74° ENE 01:42:58 42° SSE
Cosmos 158 Rocket 3.7 01:40:52 78° WNW 01:40:55 79° WNW 01:45:55 10° NNE
Cosmos 2333 4.2 01:42:17 62° SSE 01:42:59 69° ESE 01:48:34 10° NE
Lacrosse 5 2.1 01:44:47 57° SE 01:44:47 57° SE 01:49:39 10° ENE
Resurs 1-4 Rocket 2.7 01:39:30 10° NNE 01:44:40 49° E 01:45:54 41° SE
Cosmos 1766 Rocket 3.6 01:40:55 10° N 01:44:56 75° NNE 01:44:56 75° NNE
Cosmos 2333 Rocket 2.0 01:46:53 67° SSW 01:47:42 87° ESE 01:53:24 10° NNE
ALOS 4.5 01:44:59 10° NE 01:48:13 18° E 01:50:36 13° SE
Cosmos 44 Rocket 4.0 01:48:57 44° SE 01:49:21 44° ESE 01:54:16 10° NE
USA 215 3.2 01:44:08 10° ENE 01:50:42 83° NNW 01:53:22 39° WSW
Lacrosse 4 Rocket 2.8 01:50:59 27° NW 01:51:11 27° NW 01:54:40 10° NNE
Cosmos 2360 Rocket 2.1 01:51:39 62° WSW 01:52:34 78° WNW 01:58:15 10° NNE
Cosmos 972 Rocket 4.5 01:51:41 46° SSE 01:52:50 55° ESE 01:57:50 10° NNE
Cosmos 1743 3.3 01:51:10 10° N 01:54:05 52° N 01:54:05 52° N
BlueWalker 3 2.7 01:58:05 47° E 01:58:05 47° E 02:00:56 10° E
Aureole 3 Rocket 4.2 01:52:52 10° NNW 01:56:48 34° WNW 01:56:48 34° WNW
Cosmos 2278 Rocket 3.1 01:54:48 10° NNW 02:00:19 48° NE 02:05:49 10° SE
Cosmos 2344 4.1 01:52:25 10° NW 02:00:28 77° NE 02:11:24 10° SE
Cosmos 773 Rocket 3.9 02:00:42 65° SSW 02:01:31 86° WNW 02:06:50 10° NNE
IRIDIUM 106 4.4 01:56:52 10° N 02:02:07 73° E 02:03:43 45° SSE
Cosmos 1933 4.5 02:03:10 33° NW 02:03:10 33° NW 02:06:09 10° N
Cosmos 2322 Rocket 2.5 02:01:19 45° W 02:02:34 55° NW 02:08:06 10° NNE
NOSS 3-4 (A) 3.2 02:03:50 55° SSW 02:05:03 75° SE 02:11:11 10° NE
NOSS 3-4 (C) 3.2 02:03:53 55° SSW 02:05:06 75° SE 02:11:15 10° NE
IDEFIX/ARIANE 42P 2.5 02:00:09 10° NNE 02:05:23 83° ESE 02:06:30 56° S
Cosmos 1536 3.8 02:06:05 10° N 02:09:48 42° ENE 02:11:04 31° ESE
Okean 3 Rocket 3.5 02:05:42 10° N 02:10:17 87° E 02:10:57 65° SSE
Cosmos 1782 4.4 02:11:03 23° NW 02:11:03 23° NW 02:13:32 10° NNW
Cosmos 2219 Rocket 2.1 02:09:03 54° SSW 02:10:23 81° ESE 02:16:01 10° NNE
MSX 3.8 02:06:22 10° NNE 02:12:11 81° ESE 02:14:09 44° S
Gbstr 26 Del rocket 4.1 02:13:49 30° SE 02:13:49 30° SE 02:16:40 10° E
H-2A R/B 3.5 02:09:47 10° N 02:13:48 63° WNW 02:13:48 63° WNW
ATLAS 3B R/B 4.4 02:09:46 10° NW 02:16:44 36° NNE 02:23:51 10° E
COBE Rocket 3.7 02:13:19 10° NNE 02:18:03 78° ESE 02:19:05 54° S
GP-B 4.2 02:14:03 10° NNE 02:18:14 40° E 02:20:36 22° SE
SL-16 R/B 3.4 02:17:07 25° W 02:19:15 33° NW 02:24:23 10° NNE
Meteor 1-28 Rocket 3.2 02:20:06 68° ESE 02:20:22 72° ENE 02:24:02 10° N
NOSS 2-2 (E) 3.9 02:19:13 10° NW 02:23:23 78° NE 02:29:16 10° SE
BREEZE-M DEB (TANK) 2.8 02:27:07 66° S 02:27:14 67° S 02:34:11 10° E
USA 267 4.5 02:30:04 22° W 02:30:04 22° W 02:33:00 10° WNW
Cosmos 1726 2.1 02:24:25 10° N 02:27:30 61° ENE 02:27:30 61° ENE
Okean 1 4.4 02:29:45 26° SE 02:31:11 37° E 02:34:43 10° NNE
ADEOS II 2.1 02:26:35 10° NNE 02:31:53 75° ESE 02:34:06 35° S
FENGYUN 3A 3.8 02:29:02 10° NNE 02:34:29 69° ESE 02:37:10 30° S
Meteor 1-14 Rocket 4.3 02:31:38 10° NNW 02:37:02 55° W 02:38:42 40° SSW
Cosmos 1461 2.7 02:33:37 10° NW 02:37:30 76° NE 02:41:19 10° SE
NOSS 2-2 (D) 3.9 02:33:40 10° NW 02:37:46 75° NE 02:43:30 10° SE
ATLAS 5 CENTAUR R/B 3.6 02:36:56 10° NW 02:40:59 33° NNE 02:45:52 10° E
SL-16 R/B 2.4 02:36:39 19° S 02:41:14 76° WSW 02:47:30 10° NNW
Meteor 2-6 Rocket 4.3 02:38:50 37° SSW 02:41:19 72° WNW 02:47:17 10° N
NOSS 2-3 (E) 4.4 02:37:19 10° NW 02:42:44 90° NE 02:50:13 10° SE
RESURS DK-1 3.4 02:41:52 29° SSE 02:43:14 38° ESE 02:47:02 10° NE
CZ-2D R/B 2.2 02:38:18 10° N 02:43:35 65° WNW 02:45:38 37° SW
Cosmos 1842 Rocket 3.7 02:50:51 43° SW 02:51:58 57° WNW 02:56:22 10° N
Cosmos 1408 Rocket 3.5 02:48:19 10° NNW 02:52:35 62° W 02:53:56 40° SSW
IRAS Rocket 4.2 02:51:42 10° NNE 02:57:23 84° WNW 03:00:33 27° SSW
Cosmos 1975 4.5 02:55:00 10° N 02:58:30 32° ENE 03:02:00 10° SE
Cosmos 375 4.2 02:55:57 10° NW 02:59:46 82° SW 03:04:16 10° SE
Cosmos 1943 Rocket 2.4 02:55:15 10° NNW 03:00:57 73° ENE 03:06:37 10° SE
Meteor 1-27 Rocket 4.0 02:56:58 17° S 03:01:25 70° E 03:07:05 10° NNE
COSMOS 2428 2.7 03:04:40 29° SW 03:07:45 79° WNW 03:13:29 10° NNE
Cosmos 1805 Rocket 3.4 03:04:42 10° NNW 03:09:02 69° W 03:11:52 21° S
CZ-4 R/B 4.5 03:04:36 10° NNE 03:09:18 52° E 03:13:29 12° S
Cosmos 1500 Rocket 3.6 03:05:17 10° NNW 03:09:40 57° W 03:12:00 26° SSW
Meteor 1-10 Rocket 4.3 03:06:03 25° SSW 03:09:40 72° WNW 03:15:38 10° N
UNK 3.7 03:07:30 21° S 03:10:29 60° WSW 03:15:04 10° NNW
Meteor 1-11 Rocket 3.8 03:06:52 10° NNW 03:12:20 55° W 03:16:27 17° SSW
Cosmos 1666 Rocket 4.5 03:08:12 10° N 03:12:35 50° ENE 03:16:54 10° SSE
CZ-2C R/B 3.5 03:12:51 26° WSW 03:14:19 30° W 03:19:03 10° NNW
Cosmos 2237 Rocket 2.7 03:11:13 16° S 03:15:36 56° ESE 03:21:10 10° NE
Cosmos 1980 4.1 03:12:33 17° S 03:16:49 61° ESE 03:22:24 10° NE
AQUA 4.0 03:12:34 10° N 03:17:12 54° WNW 03:19:38 26° SW
CZ-2C R/B 3.3 03:12:35 10° N 03:17:29 53° WNW 03:20:25 24° SW
Cosmos 2221 4.2 03:16:57 16° W 03:17:49 17° WNW 03:20:41 10° NNW
Cosmos 1867 4.1 03:13:22 10° NW 03:18:20 36° WSW 03:23:16 10° S
Cosmos 2369 Rocket 4.2 03:13:48 10° NNW 03:18:47 31° NE 03:23:43 10° ESE
Intercosmos 25 Rocket 4.0 03:16:35 10° N 03:19:48 53° ENE 03:24:00 10° SSE
Cosmos 2322 4.1 03:20:27 24° WSW 03:23:49 53° NW 03:29:26 10° NNE
Resurs 1-4 Rocket 3.1 03:19:38 10° N 03:24:18 32° WNW 03:26:58 20° WSW
Meteor 2-9 Rocket 4.2 03:19:32 10° NNW 03:24:46 57° W 03:30:06 10° S
NOSS 2-2 (C) 3.9 03:20:47 10° NW 03:25:00 58° SW 03:30:52 10° SSE
ALOS 2.3 03:21:17 10° N 03:25:54 66° WNW 03:28:56 21° SSW
Lacrosse 5 2.3 03:23:58 18° W 03:27:42 57° NNW 03:32:45 10° ENE
Cosmos 2195 Rocket 4.5 03:23:06 14° SSW 03:28:33 76° W 03:34:50 10° N
Cosmos 44 Rocket 4.1 03:27:36 20° WSW 03:30:55 45° NW 03:35:52 10° NE
Cosmos 1733 3.2 03:27:42 10° NNW 03:31:13 52° W 03:33:43 18° SSW
Cosmos 2333 Rocket 3.7 03:28:52 13° W 03:32:43 25° NW 03:37:22 10° NNE
USA 215 3.8 03:27:05 10° ENE 03:33:28 57° N 03:39:50 10° W
Nadezhda 4 Rocket 4.3 03:30:19 20° SW 03:34:23 46° WNW 03:40:17 10° N
BlueWalker 3 2.2 03:32:32 16° W 03:35:15 44° SSW 03:38:55 10° SE
Sich 1 3.5 03:31:27 10° NNW 03:35:22 38° W 03:37:58 18° SSW
YAOGAN 6 3.4 03:33:01 10° NNE 03:36:11 44° E 03:39:20 10° S
IRS-1D 4.2 03:32:09 10° NNE 03:37:08 54° E 03:42:11 10° S
Cosmos 2360 Rocket 3.9 03:33:23 11° W 03:37:30 22° NW 03:41:50 10° NNE
NOSS 0 Rocket 3.9 03:36:15 17° SW 03:41:06 79° NW 03:47:18 10° NNE
USA 290 3.9 03:40:42 10° N 03:43:36 36° ENE 03:46:29 10° SE
Cosmos 1743 Rocket 4.2 03:39:42 10° NNW 03:43:36 33° W 03:46:31 16° SSW
Cosmos 2278 Rocket 2.7 03:39:07 10° NW 03:44:19 37° WSW 03:49:27 10° S
IDEFIX/ARIANE 42P 4.2 03:40:39 10° N 03:44:19 20° NW 03:47:15 13° W
Cosmos 1536 4.2 03:42:44 10° NW 03:45:32 19° W 03:46:21 18° WSW
NOSS 3-1 (C) 4.1 03:39:19 10° NW 03:46:20 82° NE 03:55:01 10° SE
Cosmos 1328 Rocket 4.1 03:42:09 10° S 03:46:30 62° E 03:50:54 10° NNE
Cosmos 1340 Rocket 2.8 03:43:22 10° S 03:47:12 77° E 03:51:06 10° NNE
Cosmos 2322 Rocket 4.2 03:44:14 10° WNW 03:47:55 17° NNW 03:51:35 10° NNE
Cosmos 1805 3.1 03:46:28 10° NNW 03:50:08 58° W 03:53:46 10° S
SWAS 4.4 03:46:11 10° NW 03:50:19 55° WSW 03:54:25 10° SSE
Cosmos 1633 Rocket 3.0 03:46:34 10° NNW 03:50:56 86° WSW 03:55:16 10° S
Cosmos 1680 Rocket 3.7 03:47:13 10° SSW 03:52:31 79° ESE 03:57:52 10° NNE
Cosmos 1553 Rocket 4.0 03:47:27 10° NNW 03:53:48 80° W 03:59:59 10° S
Cosmos 2219 Rocket 3.6 03:50:45 12° W 03:55:00 26° NW 03:59:40 10° NNE
GP-B 4.2 03:51:36 10° NNW 03:55:16 26° WNW 03:57:55 15° WSW
NOSS 3-4 (A) 4.4 03:51:15 11° W 03:56:26 38° NNW 04:02:26 10° NE
NOSS 3-4 (C) 4.4 03:51:18 11° W 03:56:29 39° NNW 04:02:30 10° NE
Cosmos 1420 Rocket 4.0 03:52:16 10° NNW 03:57:25 58° WSW 04:02:35 10° S
Gbstr 26 Del rocket 2.7 03:56:06 15° WSW 03:59:25 82° SSE 04:03:11 10° E
Cosmos 2056 Rocket 3.6 03:55:46 10° NNW 04:01:06 64° WSW 04:06:26 10° S
METEOR-M 4.2 03:56:27 10° NNE 04:01:46 69° WNW 04:07:03 10° SSW
SL-16 R/B 4.5 04:02:38 10° NW 04:05:14 13° NNW 04:07:51 10° N
EO 1 Delta rocket 4.3 04:01:31 10° N 04:06:01 42° WNW 04:10:22 10° SW
SL-16 R/B 3.2 04:00:42 10° S 04:06:03 45° ESE 04:11:26 10° NE
Cosmos 1452 Rocket 4.4 04:02:58 10° NNW 04:08:09 54° ENE 04:13:18 10° SE
ATLAS 3B R/B 3.5 04:01:05 10° NW 04:08:50 68° NE 04:16:36 10° ESE
CZ-2C R/B 2.5 04:04:30 10° NNE 04:09:40 75° WNW 04:14:49 10° SSW
Cosmos 1656 Rocket 4.0 04:04:49 10° NNW 04:10:16 70° ENE 04:15:39 10° SE
PAYLOAD A 3.9 04:05:51 10° NNE 04:10:52 82° WNW 04:15:41 10° SSW
ADEOS II 3.5 04:07:02 10° N 04:10:59 22° NW 04:14:55 10° WSW
Cosmos 1624 Rocket 4.1 04:08:26 10° NNW 04:13:31 51° WSW 04:18:31 10° S
Cosmos 1461 4.3 04:13:02 10° WNW 04:15:16 15° WSW 04:17:30 10° SSW
Cosmos 1092 Rocket 4.5 04:11:35 10° SW 04:17:21 42° WNW 04:23:12 10° N
Iridium 51 3.8 04:14:35 10° S 04:17:57 89° WNW 04:21:18 10° N
RESURS DK-1 3.4 04:17:30 10° WSW 04:21:05 31° NW 04:24:43 10° NNE
Cosmos 1151 Rocket 4.0 04:17:46 10° SW 04:21:33 30° WNW 04:25:24 10° N
Meteor 2-12 Rocket 4.4 04:15:39 10° SSW 04:21:42 79° W 04:27:48 10° N
CZ-2D R/B 4.1 04:19:55 10° NNW 04:22:41 14° NW 04:25:27 10° W
ATLAS 5 CENTAUR R/B 2.0 04:20:31 10° NW 04:25:18 74° SW 04:31:15 10° SE
SL-16 R/B 4.0 04:22:20 10° WSW 04:25:52 16° W 04:29:26 10° NW
Cosmos 1939 Rocket 4.4 04:23:32 10° NNE 04:27:03 36° E 04:30:34 10° SSE
Cosmos 923 Rocket 4.5 04:22:54 10° SW 04:27:56 47° WNW 04:33:04 10° NNE
Envisat 3.5 04:23:11 10° N 04:28:00 43° WNW 04:32:47 10° SW
Cosmos 1766 3.1 04:26:10 10° NNW 04:29:51 62° W 04:33:29 10° S
Cosmos 921 Rocket 3.0 04:28:16 10° SSW 04:32:30 71° WNW 04:36:52 10° NNE
Cosmos 1674 3.3 04:29:50 10° S 04:33:11 53° E 04:36:33 10° NNE
Cosmos 1975 3.9 04:31:10 10° NW 04:34:19 24° W 04:37:28 10° SW
Cosmos 1869 Rocket 4.4 04:30:32 10° N 04:34:51 55° ENE 04:39:06 10° SSE
Cosmos 1515 Rocket 3.6 04:31:29 10° S 04:35:56 89° NW 04:40:24 10° N
